星链-11407 (STARLINK-11407)

导读

STARLINK-11407是美国SpaceX星链星座的成员,于2024年11月14日发射升空。作为星链网络的一部分,它旨在为全球提供低延迟、高速率的宽带互联网覆盖,尤其服务偏远地区和网络基础设施不足区域。该卫星依托SpaceX可重复发射技术降低部署成本,批量发射模式推动星座快速组网,持续拓展星链系统的服务能力与全球覆盖范围。

基本信息
目录编号:
61939
目录名称:
STARLINK-11407
国际标识:
2024-209A
轨道中心:
EARTH
卫星名称:
星链-11407
卫星全名:
星链-11407 (STARLINK-11407)
卫星状态:
在轨 (已飞行666 天)
发射日期:
2024-11-14 UTC
国别 :
美国 (US)
星等 :
--
该卫星已列入 空间交会检测服务 Space Conjunction Data Service (SCDS) ,当前飞行风险评估等级: 无高风险
轨道信息
数据来源 国际轨道数据
星历时间: 2026-09-11T13:44:25+0800
7小时前
查看轨道信息
半长轴: 6737.794km
偏心率: 0.0001458
轨道倾角: 53.157°
近地点辐角 129.999°
升交点赤经 176.345°
平近点角 230.116°
近地点: 358.674km
远地点: 360.64km
周期: 91.735分钟
每日圈数: 15.697345
详细信息
固有亮度:
5
最大亮度:
2.5
卫星平台:
Starlink V1.0
覆盖范围:
全球
运营商:
太空探索技术公司
运营商所在国:
美国
制造商(研发单位):
太空探索技术公司
制造商所在国:
美国
使用方式:
暂无
卫星简介
Starlink 计划是 SpaceX 推出的全球卫星互联网项目,通过发射低轨道卫星,为全球尤其是偏远地区提供高速、低延迟的互联网服务。自 2019 年起,Starlink 已部署数千颗卫星,旨在缩小全球数字鸿沟,推动互联网普及。该项目还为军事、航空等行业提供通信支持,带来广泛经济效益。
2D轨道图
3D轨道图
轨道高度分析图
轨道倾角分析图
轨道综合分析图
查看轨道综合分析图
交会数据列表
事件ID 空间交会对象 最接近时刻(TCA) 交会距离 交会风险概率(CRP) 交会风险指数(CRI) 操作
CDM_260910-210306-040506-193921
2026-09-10T
21:03:20+0000
1.910 km
极远距离
2.107643E-6 低风险 0.41
与全量物体交会距离演化趋势
与全量物体交会风险概率演化趋势